• In Hungary
  • List of Countries
  • For 7 days
  • Water Temperature
  • Satellite Maps
  • Weather Map
  • News
  • Weather Widgets
  • user-avatar
    Login

    Hourly Weather Santa Bárbara de Samaná

    Today, 19 February, Monday

    Time Temperature Precipitation Wind Pressure Humidity
    00:00 +22°C° 0.1 mm 5 mps 765 mmHg 91%
    01:00 +22°C° 0.1 mm 5 mps 765 mmHg 91%
    02:00 +22°C° 0.1 mm 5 mps 765 mmHg 92%
    03:00 +22°C° 0.1 mm 5 mps 765 mmHg 92%
    04:00 +22°C° 0.1 mm 6 mps 764 mmHg 92%
    05:00 +22°C° 0.1 mm 6 mps 765 mmHg 92%
    06:00 +23°C° 0.1 mm 6 mps 765 mmHg 92%
    07:00 +23°C° 0.1 mm 6 mps 766 mmHg 92%
    08:00 +24°C° 0.1 mm 6 mps 766 mmHg 83%
    09:00 +27°C° 0.1 mm 7 mps 766 mmHg 74%
    10:00 +29°C° 0.1 mm 7 mps 766 mmHg 65%
    11:00 +29°C° 0.1 mm 7 mps 766 mmHg 62%
    12:00 +29°C° 0.1 mm 6 mps 766 mmHg 60%
    13:00 +30°C° 0.1 mm 6 mps 765 mmHg 58%
    14:00 +29°C° 0.1 mm 6 mps 765 mmHg 60%
    15:00 +29°C° 0.1 mm 6 mps 765 mmHg 63%
    16:00 +28°C° 0.1 mm 6 mps 764 mmHg 66%
    17:00 +27°C° 0.1 mm 6 mps 765 mmHg 72%
    18:00 +26°C° 0.1 mm 6 mps 765 mmHg 77%
    19:00 +24°C° 0.1 mm 6 mps 765 mmHg 82%
    20:00 +24°C° 0.1 mm 6 mps 766 mmHg 82%
    21:00 +24°C° 0.1 mm 6 mps 766 mmHg 82%
    22:00 +23°C° 0.1 mm 6 mps 766 mmHg 82%
    23:00 +23°C° 0.1 mm 6 mps 766 mmHg 83%

    Tomorrow, 20 February, Tuesday

    Time Temperature Precipitation Wind Pressure Humidity
    00:00 +23°C° 0.1 mm 6 mps 766 mmHg 85%
    01:00 +23°C° 0.1 mm 6 mps 766 mmHg 86%
    02:00 +23°C° 0.1 mm 6 mps 766 mmHg 86%
    03:00 +23°C° 0.1 mm 6 mps 765 mmHg 87%
    04:00 +23°C° 0.1 mm 6 mps 765 mmHg 88%
    05:00 +23°C° 0.1 mm 6 mps 765 mmHg 87%
    06:00 +23°C° 0.1 mm 6 mps 766 mmHg 87%
    07:00 +23°C° 0.1 mm 6 mps 766 mmHg 86%
    08:00 +26°C° 0.1 mm 6 mps 766 mmHg 79%
    09:00 +27°C° 0.1 mm 7 mps 767 mmHg 71%
    10:00 +29°C° 0.1 mm 7 mps 767 mmHg 63%
    11:00 +29°C° 0.1 mm 7 mps 767 mmHg 62%
    12:00 +30°C° 0.1 mm 7 mps 766 mmHg 60%
    13:00 +30°C° 0.1 mm 7 mps 766 mmHg 59%
    14:00 +29°C° 0.1 mm 7 mps 766 mmHg 62%
    15:00 +29°C° 0.1 mm 7 mps 765 mmHg 64%
    16:00 +28°C° 0.1 mm 6 mps 765 mmHg 66%
    17:00 +27°C° 0.1 mm 6 mps 765 mmHg 71%
    18:00 +26°C° 0.1 mm 6 mps 766 mmHg 76%
    19:00 +24°C° 0.1 mm 6 mps 766 mmHg 81%
    20:00 +23°C° 0.1 mm 6 mps 766 mmHg 82%
    21:00 +23°C° 0.1 mm 6 mps 767 mmHg 83%
    22:00 +23°C° 0.1 mm 6 mps 767 mmHg 84%
    23:00 +23°C° 0.1 mm 6 mps 767 mmHg 85%

    Day after tomorrow, 21 February, Wednesday

    Time Temperature Precipitation Wind Pressure Humidity
    00:00 +23°C° 0.1 mm 5 mps 766 mmHg 87%
    01:00 +23°C° 0.1 mm 5 mps 766 mmHg 88%
    02:00 +22°C° 0.2 mm 5 mps 766 mmHg 89%
    03:00 +22°C° 0.2 mm 5 mps 765 mmHg 90%
    04:00 +22°C° 0.2 mm 5 mps 765 mmHg 92%
    05:00 +22°C° 0.4 mm 6 mps 765 mmHg 92%
    06:00 +22°C° 0.4 mm 6 mps 766 mmHg 92%
    07:00 +23°C° 0.4 mm 6 mps 766 mmHg 92%
    08:00 +24°C° 0.6 mm 7 mps 766 mmHg 89%
    09:00 +26°C° 0.6 mm 7 mps 767 mmHg 86%
    10:00 +27°C° 0.6 mm 7 mps 767 mmHg 83%
    11:00 +27°C° 0.9 mm 7 mps 767 mmHg 83%
    12:00 +27°C° 0.9 mm 7 mps 766 mmHg 84%
    13:00 +27°C° 0.9 mm 7 mps 766 mmHg 84%
    14:00 +27°C° 0.4 mm 7 mps 765 mmHg 80%
    15:00 +27°C° 0.4 mm 7 mps 765 mmHg 75%
    16:00 +28°C° 0.4 mm 7 mps 765 mmHg 71%
    17:00 +27°C° 0.2 mm 7 mps 765 mmHg 75%
    18:00 +26°C° 0.2 mm 7 mps 766 mmHg 80%
    19:00 +24°C° 0.2 mm 7 mps 766 mmHg 84%
    20:00 +23°C° 0.1 mm 7 mps 766 mmHg 85%
    21:00 +23°C° 0.1 mm 7 mps 767 mmHg 85%
    22:00 +23°C° 0.1 mm 7 mps 767 mmHg 86%
    23:00 +23°C° 0.1 mm 7 mps 767 mmHg 86%

    22 February, Thursday

    Time Temperature Precipitation Wind Pressure Humidity
    00:00 +22°C° 0.1 mm 6 mps 766 mmHg 85%
    01:00 +22°C° 0.1 mm 6 mps 766 mmHg 85%
    02:00 +22°C° 0.1 mm 6 mps 766 mmHg 85%
    03:00 +22°C° 0.1 mm 6 mps 766 mmHg 85%
    04:00 +22°C° 0.1 mm 6 mps 766 mmHg 84%
    05:00 +22°C° 0.1 mm 6 mps 766 mmHg 83%
    06:00 +22°C° 0.1 mm 6 mps 766 mmHg 81%
    07:00 +23°C° 0.1 mm 6 mps 767 mmHg 79%
    08:00 +24°C° 0.1 mm 6 mps 767 mmHg 73%
    09:00 +27°C° 0.1 mm 6 mps 767 mmHg 66%
    10:00 +29°C° 0.1 mm 7 mps 767 mmHg 59%
    11:00 +29°C° 0.1 mm 7 mps 767 mmHg 57%
    12:00 +29°C° 0.1 mm 7 mps 766 mmHg 56%
    13:00 +30°C° 0.1 mm 6 mps 765 mmHg 54%
    14:00 +29°C° 0.1 mm 6 mps 765 mmHg 58%
    15:00 +29°C° 0.1 mm 6 mps 765 mmHg 61%
    16:00 +28°C° 0.1 mm 6 mps 764 mmHg 65%
    17:00 +27°C° 0.2 mm 6 mps 765 mmHg 70%
    18:00 +24°C° 0.2 mm 6 mps 765 mmHg 76%
    19:00 +23°C° 0.2 mm 6 mps 765 mmHg 82%
    20:00 +23°C° 0.1 mm 6 mps 766 mmHg 82%
    21:00 +23°C° 0.1 mm 6 mps 766 mmHg 83%
    22:00 +23°C° 0.1 mm 6 mps 766 mmHg 83%
    23:00 +22°C° 0.1 mm 6 mps 765 mmHg 84%

    23 February, Friday

    Time Temperature Precipitation Wind Pressure Humidity
    00:00 +22°C° 0.1 mm 6 mps 765 mmHg 85%
    01:00 +22°C° 0.1 mm 6 mps 765 mmHg 86%
    02:00 +22°C° 0.1 mm 6 mps 764 mmHg 87%
    03:00 +22°C° 0.1 mm 5 mps 764 mmHg 88%
    04:00 +22°C° 0.1 mm 5 mps 764 mmHg 89%
    05:00 +22°C° 0.1 mm 5 mps 764 mmHg 88%
    06:00 +22°C° 0.1 mm 5 mps 765 mmHg 87%
    07:00 +23°C° 0.1 mm 5 mps 765 mmHg 86%
    08:00 +24°C° 0.1 mm 6 mps 765 mmHg 80%
    09:00 +26°C° 0.1 mm 6 mps 765 mmHg 74%
    10:00 +28°C° 0.1 mm 6 mps 766 mmHg 68%
    11:00 +28°C° 0.3 mm 6 mps 765 mmHg 65%
    12:00 +29°C° 0.3 mm 6 mps 764 mmHg 63%
    13:00 +29°C° 0.3 mm 6 mps 764 mmHg 60%
    14:00 +29°C° 0.1 mm 6 mps 763 mmHg 62%
    15:00 +28°C° 0.1 mm 6 mps 763 mmHg 64%
    16:00 +28°C° 0.1 mm 6 mps 763 mmHg 66%
    17:00 +26°C° 0 mm 6 mps 763 mmHg 72%
    18:00 +25°C° 0 mm 5 mps 763 mmHg 78%
    19:00 +23°C° 0 mm 5 mps 764 mmHg 84%
    20:00 +23°C° 0.1 mm 5 mps 764 mmHg 85%
    21:00 +22°C° 0.1 mm 5 mps 764 mmHg 85%
    22:00 +22°C° 0.1 mm 5 mps 764 mmHg 86%
    23:00 +22°C° 0.2 mm 5 mps 764 mmHg 87%

    24 February, Saturday

    Time Temperature Precipitation Wind Pressure Humidity
    00:00 +22°C° 0.2 mm 5 mps 764 mmHg 88%
    01:00 +21°C° 0.2 mm 5 mps 763 mmHg 89%
    02:00 +21°C° 0.5 mm 5 mps 763 mmHg 90%
    03:00 +21°C° 0.5 mm 5 mps 763 mmHg 92%
    04:00 +21°C° 0.5 mm 5 mps 763 mmHg 93%
    05:00 +21°C° 0.5 mm 5 mps 763 mmHg 92%
    06:00 +22°C° 0.5 mm 5 mps 763 mmHg 92%
    07:00 +22°C° 0.5 mm 5 mps 764 mmHg 91%
    08:00 +23°C° 0.6 mm 5 mps 764 mmHg 87%
    09:00 +25°C° 0.6 mm 5 mps 764 mmHg 84%
    10:00 +26°C° 0.6 mm 6 mps 764 mmHg 80%
    11:00 +28°C° 0.2 mm 5 mps 764 mmHg 72%
    12:00 +29°C° 0.2 mm 5 mps 763 mmHg 63%
    13:00 +30°C° 0.2 mm 5 mps 763 mmHg 55%
    14:00 +30°C° 0.2 mm 5 mps 762 mmHg 58%
    15:00 +29°C° 0.2 mm 5 mps 762 mmHg 61%
    16:00 +28°C° 0.2 mm 5 mps 761 mmHg 64%
    17:00 +27°C° 0.1 mm 5 mps 762 mmHg 71%
    18:00 +25°C° 0.1 mm 5 mps 762 mmHg 77%
    19:00 +23°C° 0.1 mm 5 mps 763 mmHg 84%
    20:00 +23°C° 0.1 mm 5 mps 763 mmHg 86%
    21:00 +22°C° 0.1 mm 5 mps 763 mmHg 88%
    22:00 +22°C° 0.1 mm 5 mps 763 mmHg 90%
    23:00 +22°C° 0.2 mm 4 mps 763 mmHg 91%
    Show more